Weather in Turmero

Venezuela     10°13′13″N   67°29′25″W
temp.,
°C
wind,
m/s
gust,
m/s
humid.,
%
clouds,
%
prec.,
mm/h
press.,
hPa
HPBL,
m
22 april, thu
thu2223:00+22n11740 0.1 101482
02:00+21n11795 0.2 101347
05:00+19ene11810 0.0 101437
08:00+23se11630 0.0 1015300
11:00+30sw22360 0.0 10141889
14:00+32wnw33283 0.0 10102633
17:00+30nnw33377 0.0 10081571
20:00+24nne246885 0.1 1011163
23 april, fri
fri2323:00+24nnw1170100 0.2 1013132
02:00+22se127810 1.1 1013224
05:00+20e12800 0.1 101373
08:00+24se13630 0.1 1014351
11:00+30sse343930 0.0 10132170
14:00+29wsw1242100 0.2 10101519
17:00+26n345886 0.3 1010253
20:00+24nne247194 0.3 1012158
24 april, sat
sat2423:00+22n238083 0.1 1013133
02:00+22sse0181100 0.8 1013182
05:00+21ene1280100 1.7 1013138
08:00+22e117434 2.1 1015204
11:00+29sse124625 1.6 10141263
14:00+28wnw2252100 3.1 1011860
17:00+25nne2364100 1.7 1011307
20:00+23n248040 2.1 1012163
25 april, sun
sun2523:00+23n117797 0.3 101393
02:00+22ese128051 1.1 1012102
05:00+21ene128613 0.6 101266
08:00+23e127383 0.6 1014350
11:00+30ssw124741 0.3 10131727
14:00+28nw325296 1.1 1010948
17:00+26n336128 0.9 1009390
20:00+23n347812 1.3 1012162
26 april, mon
mon2623:00+22n238416 0.1 1013128
02:00+21ne118634 0.1 101294
05:00+20e118816 0.1 101296
08:00+23ese117366 0.2 1013386
11:00+30sw1245100 0.1 10131416
14:00+30nw334522 0.5 10091582
17:00+28nnw325861 0.8 1008812
20:00+24nnw237650 1.2 1010183